Location: Dackenheim
(49.5215°N, 8.1854°E)
Time: 06:31:42
(UTC+00:00)

Cosmos-2242 - Pass Details

Date: 19 May 2025
Orbit: 569 x 594 km, 82.5° (Epoch: 14 June)

Event Time Altitude Azimuth Distance (km) Brightness Sun altitude
Exits shadow 19:51:09 - 160° (SSE) 2,423 5.6 -6.1°
Reaches altitude 10° 19:52:28 10° 153° (SSE) 1,928 5.0 -6.3°
Maximum altitude 19:56:16 32° 90° (E) 1,034 3.8 -6.7°
Drops below altitude 10° 20:00:04 10° 28° (NNE) 1,938 5.8 -7.2°
Sets 20:02:26 0° 18° (NNE) 2,842 6.8 -7.5°
